Regional Weather Roundup
Issued by NWS Cleveland, OH

Home | Current Version | Previous Version | Graphics & Text | Print | Product List | Glossary On
Versions: 1 2 3 4 5 6 7 8 9 10 11 12 13 14 15 16 17 18 19 20 21 22 23 24 25 26 27 28 29 30 31 32 33 34 35 36 37 38 39 40 41 42 43 44 45 46 47 48 49 50
032
ASUS41 KCLE 170902
RWRCLE
OHIO REGIONAL WEATHER ROUNDUP
NATIONAL WEATHER SERVICE CLEVELAND, OH
400 AM EST WED JAN 17 2018

NOTE: "FAIR" INDICATES FEW OR NO CLOUDS BELOW 12,000 FEET WITH NO
SIGNIFICANT WEATHER AND/OR OBSTRUCTIONS TO VISIBILITY.

OHZ001>008-015>018-024>027-034-035-043-044-171000-
   NORTHWEST OHIO

CITY           SKY/WX    TMP DP  RH WIND       PRES   REMARKS
DEFIANCE       FAIR       0  -4  83 SW5       30.50S WCI -10
FINDLAY        CLOUDY     7   1  76 SW6       30.49S WCI  -3
TOLEDO EXPRESS CLOUDY     4   3  96 SW7       30.49S WCI  -8
TOLEDO EXEC    MOCLDY     5   1  83 SW8       30.50S WCI  -8
LIMA           FLURRIES   8   5  87 SW8       30.48S WCI  -4
$$

OHZ009>014-019>023-028>033-038-089-171000-
   NORTHEAST OHIO

CITY           SKY/WX    TMP DP  RH WIND       PRES   REMARKS
CLE-HOPKINS    FAIR       4  -2  76 SW9       30.50S WCI -10
CLE-LAKEFRONT  MOCLDY     5  -1  76 SW7       30.49S WCI  -7
CUY CO. ARPT   NOT AVBL
LORAIN-ELYRIA  CLOUDY     2  -4  76 SW9       30.48S WCI -13
ASHTABULA      CLOUDY     1  -2  87 S6        30.45S WCI -10
AKRON-CANTON   FLURRIES   2  -3  80 SW6       30.44S WCI  -9
WOOSTER        FAIR      -2  -6  83 SW7       30.46S WCI -15
MANSFIELD      CLOUDY     4   1  88 W7        30.45R WCI  -8
YOUNGSTOWN     FAIR       2  -2  83 SW6       30.43R WCI  -9
$$

OHZ042-051>053-060>062-070>072-077>081-171000-
  SOUTHWEST OHIO

CITY           SKY/WX    TMP DP  RH WIND       PRES   REMARKS
CINC-COVINGTON LGT SNOW   7   4  87 SW3       30.53S FOG
CINC-LUNKEN    LGT SNOW  10   6  84 SW5       30.59S FOG     WCI   2
HAMILTON       CLOUDY     9   4  80 W3        30.57S
DAYTON         LGT SNOW   7   4  87 SW7       30.51R FOG     WCI  -5
WRIGHT-PAT AFB FLURRIES   8   2  75 SW7       30.52R WCI  -3
DAYTON GENERAL CLOUDY     7   2  80 SW6       30.51S WCI  -3
WILMINGTON     LGT SNOW   7   5  91 NW6       30.50S FOG     WCI  -3
$$

OHZ036-037-039>041-045>050-054>059-063>069-073>076-082>088-171000-
  CENTRAL AND SOUTHEAST OHIO

CITY           SKY/WX    TMP DP  RH WIND       PRES   REMARKS
COLUMBUS       FLURRIES   8   4  83 SW5       30.52R WCI   0
OSU AIRPORT    CLOUDY     7   4  87 SW7       30.51R WCI  -5
BOLTON FIELD   FLURRIES   7   3  84 W3        30.52S
RICKENBACK AFB FLURRIES   6   2  83 NW3       30.53S
NEWARK         CLOUDY     6   0  76 W5        30.51R WCI  -3
MARION         CLOUDY     6   3  87 SW6       30.49R FOG     WCI  -4
LANCASTER      CLOUDY     5   0  79 W5        30.52S WCI  -4
ZANESVILLE     CLOUDY     5   1  83 NW5       30.51R WCI  -4
NEW PHILLY     NOT AVBL
$$




USA.gov is the U.S. government's official web portal to all federal, state and local government web resources and services.